Location: Arthurs Seat
(13.1500°N, 59.6000°W)
Time: 17:52:22
(UTC+00:00)

Sakura Rocket - Pass Details

Date: 25 August 2019
Orbit: 476 x 1744 km, 28.7° (Epoch: 13 October)

Event Time Altitude Azimuth Distance (km) Brightness Sun altitude
Rises 22:42:39 0° 295° (WNW) 3,442 8.9 -7.7°
Reaches altitude 10° 22:45:34 10° 293° (WNW) 2,299 7.6 -8.4°
Maximum altitude 22:50:46 71° 210° (SSW) 648 3.2 -9.6°
Enters shadow 22:54:23 12° 126° (SE) 1,634 4.7 -10.4°
